Total_Precipitation_Accumulation
0.00 0.00 0.01 0.00 0.00 0.00 0.00 0.00 0.00 0.00 0.00 0.02 0.03 0.02 0.01 0.01 0.00 0.00 0.00 0.00 0.00 0.00 0.00 0.01 0.02 0.02 0.02 0.02 0.02 0.02 0.02 0.02 0.01 0.02 0.04 0.06 0.05 0.05 0.09 0.13 0.22 0.22 0.31
0.00 0.00 0.01 0.00 0.00 0.00 0.00 0.00 0.00 0.00 0.00 0.01 0.03 0.03 0.03 0.02 0.01 0.01 0.00 0.00 0.00 0.01 0.01 0.01 0.01 0.02 0.01 0.01 0.01 0.00 0.00 0.00 0.01 0.02 0.06 0.07 0.10 0.09 0.09 0.12 0.20 0.26 0.20
0.00 0.00 0.01 0.00 0.00 0.00 0.00 0.00 0.00 0.00 0.00 0.01 0.01 0.02 0.02 0.01 0.01 0.00 0.00 0.00 0.00 0.01 0.01 0.01 0.01 0.01 0.01 0.00 0.00 0.00 0.00 0.01 0.02 0.03 0.08 0.11 0.10 0.14 0.08 0.08 0.10 0.11 0.08
0.00 0.00 0.00 0.00 0.00 0.00 0.00 0.00 0.00 0.01 0.01 0.01 0.01 0.01 0.01 0.00 0.00 0.00 0.00 0.00 0.01 0.01 0.01 0.02 0.02 0.01 0.01 0.00 0.00 0.01 0.01 0.01 0.02 0.04 0.18 0.19 0.12 0.07 0.04 0.02 0.02 0.03 0.04
0.00 0.00 0.00 0.01 0.00 0.00 0.00 0.00 0.00 0.01 0.01 0.01 0.01 0.01 0.01 0.01 0.01 0.01 0.01 0.01 0.01 0.02 0.03 0.03 0.03 0.03 0.02 0.01 0.01 0.01 0.02 0.02 0.04 0.05 0.13 0.21 0.33 0.14 0.03 0.01 0.02 0.02 0.02
0.00 0.00 0.00 0.01 0.01 0.00 0.00 0.00 0.01 0.01 0.01 0.01 0.01 0.01 0.01 0.01 0.01 0.01 0.01 0.02 0.03 0.05 0.04 0.05 0.05 0.04 0.02 0.01 0.01 0.01 0.01 0.03 0.05 0.07 0.10 0.16 0.25 0.16 0.06 0.02 0.01 0.03 0.02
0.00 0.00 0.00 0.01 0.01 0.01 0.01 0.01 0.01 0.01 0.02 0.01 0.01 0.01 0.01 0.01 0.02 0.02 0.02 0.02 0.03 0.04 0.04 0.05 0.05 0.05 0.03 0.01 0.00 0.01 0.01 0.02 0.05 0.10 0.12 0.11 0.13 0.14 0.08 0.04 0.03 0.04 0.02
0.00 0.00 0.01 0.02 0.02 0.01 0.01 0.01 0.01 0.01 0.01 0.02 0.01 0.01 0.01 0.02 0.02 0.03 0.03 0.03 0.03 0.04 0.04 0.04 0.05 0.05 0.04 0.02 0.01 0.01 0.02 0.04 0.04 0.05 0.11 0.15 0.11 0.18 0.18 0.08 0.04 0.03 0.02
0.01 0.01 0.01 0.03 0.03 0.03 0.02 0.02 0.02 0.02 0.02 0.02 0.02 0.01 0.01 0.02 0.02 0.03 0.03 0.03 0.03 0.04 0.05 0.05 0.05 0.05 0.05 0.04 0.03 0.03 0.03 0.06 0.06 0.07 0.08 0.15 0.15 0.27 0.45 0.34 0.15 0.05 0.03
0.02 0.02 0.02 0.04 0.05 0.06 0.05 0.05 0.05 0.05 0.05 0.03 0.02 0.02 0.02 0.02 0.02 0.03 0.03 0.03 0.04 0.06 0.08 0.10 0.10 0.10 0.10 0.10 0.11 0.11 0.11 0.11 0.09 0.10 0.09 0.11 0.17 0.33 0.57 0.67 0.52 0.33 0.15
0.05 0.05 0.05 0.06 0.08 0.10 0.10 0.11 0.14 0.14 0.14 0.13 0.09 0.05 0.03 0.02 0.01 0.01 0.02 0.05 0.10 0.17 0.23 0.27 0.28 0.29 0.29 0.23 0.23 0.28 0.28 0.18 0.17 0.16 0.15 0.16 0.28 0.45 0.67 0.85 0.78 0.70 0.55
0.11 0.11 0.12 0.12 0.14 0.16 0.16 0.31 0.36 0.34 0.37 0.31 0.30 0.26 0.19 0.14 0.09 0.06 0.09 0.21 0.35 0.50 0.60 0.63 0.74 0.81 0.72 0.52 0.52 0.54 0.28 0.20 0.22 0.17 0.16 0.23 0.35 0.48 0.67 0.91 0.91 0.80 0.72
0.20 0.17 0.17 0.18 0.19 0.20 0.23 0.34 0.49 0.51 0.54 0.52 0.54 0.57 0.59 0.56 0.42 0.35 0.41 0.63 0.77 0.94 0.93 1.05 1.29 1.08 0.97 0.93 0.92 0.81 0.59 0.43 0.25 0.15 0.12 0.27 0.43 0.56 0.74 0.91 0.91 0.83 0.75
0.28 0.31 0.36 0.38 0.37 0.36 0.38 0.39 0.44 0.44 0.50 0.58 0.68 0.81 0.90 0.84 0.83 0.79 0.82 0.91 1.01 1.10 1.19 1.28 1.29 1.26 1.37 1.40 1.21 1.04 0.88 0.66 0.48 0.43 0.37 0.44 0.60 0.75 0.89 0.94 0.88 0.81 0.76
0.52 0.61 0.65 0.65 0.60 0.51 0.40 0.36 0.36 0.40 0.45 0.56 0.68 0.75 0.84 1.02 1.11 1.08 0.93 0.89 0.92 1.06 1.28 1.52 1.56 1.75 1.81 1.60 1.28 1.10 1.04 0.91 0.75 0.61 0.54 0.69 0.97 0.96 0.88 0.89 0.86 0.84 0.82
0.90 0.96 0.97 0.89 0.73 0.66 0.56 0.47 0.48 0.49 0.53 0.56 0.59 0.70 0.87 0.98 1.12 1.07 1.03 1.06 1.06 1.02 1.11 1.44 1.63 1.75 1.67 1.42 1.08 0.93 0.89 0.87 0.78 0.71 0.58 0.64 0.85 0.79 0.72 0.80 0.88 0.93 0.94
1.65 1.48 1.17 0.96 0.84 0.78 0.79 0.76 0.69 0.64 0.59 0.60 0.60 0.67 0.76 0.83 0.92 0.95 0.93 0.90 0.93 0.94 0.94 1.04 1.19 1.31 1.23 1.08 0.93 0.90 0.88 0.84 0.75 0.71 0.66 0.62 0.64 0.73 0.67 0.65 0.71 0.80 0.91
2.46 2.11 1.55 1.34 1.38 1.26 1.12 0.87 0.69 0.62 0.56 0.50 0.48 0.49 0.53 0.55 0.57 0.59 0.58 0.55 0.57 0.56 0.59 0.67 0.74 0.82 0.85 0.88 0.91 0.90 0.85 0.86 0.78 0.79 0.73 0.65 0.64 0.64 0.73 0.69 0.67 0.68 0.75
2.89 2.78 2.22 2.06 2.10 1.58 0.98 0.67 0.52 0.47 0.38 0.35 0.37 0.35 0.37 0.39 0.40 0.43 0.41 0.40 0.38 0.36 0.36 0.38 0.45 0.54 0.61 0.66 0.66 0.65 0.63 0.59 0.55 0.55 0.58 0.48 0.46 0.45 0.52 0.62 0.66 0.64 0.70
2.05 2.00 1.88 1.88 1.53 1.02 0.60 0.41 0.30 0.27 0.23 0.21 0.25 0.27 0.28 0.31 0.33 0.36 0.33 0.32 0.29 0.27 0.28 0.33 0.36 0.39 0.40 0.43 0.38 0.36 0.40 0.33 0.31 0.28 0.27 0.27 0.27 0.26 0.31 0.43 0.47 0.45 0.54
0.82 0.84 0.96 0.93 0.82 0.52 0.36 0.23 0.16 0.14 0.13 0.13 0.16 0.16 0.19 0.23 0.28 0.34 0.29 0.31 0.29 0.23 0.23 0.25 0.28 0.29 0.27 0.27 0.26 0.21 0.17 0.16 0.16 0.13 0.12 0.15 0.19 0.21 0.23 0.32 0.34 0.31 0.31
0.38 0.44 0.47 0.48 0.40 0.24 0.17 0.15 0.13 0.11 0.08 0.07 0.07 0.09 0.09 0.12 0.17 0.23 0.30 0.25 0.25 0.25 0.24 0.23 0.25 0.23 0.21 0.23 0.25 0.21 0.13 0.10 0.10 0.08 0.12 0.12 0.14 0.23 0.27 0.28 0.25 0.23 0.23
0.45 0.39 0.24 0.24 0.19 0.12 0.10 0.10 0.09 0.09 0.09 0.09 0.07 0.07 0.08 0.07 0.09 0.14 0.21 0.24 0.27 0.24 0.27 0.31 0.28 0.25 0.19 0.19 0.23 0.25 0.16 0.08 0.08 0.09 0.11 0.12 0.13 0.19 0.23 0.28 0.27 0.24 0.25
0.26 0.26 0.20 0.19 0.18 0.11 0.08 0.07 0.06 0.06 0.07 0.07 0.07 0.06 0.07 0.06 0.07 0.08 0.10 0.15 0.22 0.26 0.33 0.25 0.28 0.28 0.23 0.18 0.19 0.20 0.17 0.15 0.13 0.10 0.12 0.11 0.15 0.19 0.18 0.18 0.22 0.24 0.23
0.05 0.11 0.14 0.20 0.25 0.17 0.13 0.09 0.08 0.06 0.05 0.06 0.06 0.07 0.08 0.10 0.11 0.12 0.12 0.11 0.12 0.19 0.26 0.29 0.35 0.31 0.30 0.26 0.20 0.18 0.18 0.16 0.14 0.10 0.09 0.10 0.12 0.10 0.10 0.12 0.16 0.23 0.18
0.04 0.06 0.08 0.14 0.19 0.17 0.14 0.13 0.14 0.14 0.13 0.11 0.11 0.11 0.14 0.17 0.19 0.19 0.20 0.20 0.19 0.17 0.17 0.19 0.23 0.29 0.33 0.33 0.25 0.20 0.22 0.20 0.15 0.12 0.07 0.07 0.12 0.09 0.09 0.11 0.17 0.22 0.19